Location: Lac de la Montagne noire
(46.1952°N, 74.2701°W)
Time: 19:55:09
(UTC-04:00)

ISS - Pass Details

Date: 28 March 2019
Orbit: 408 x 410 km, 51.6° (Epoch: 23 April)

Event Time Altitude Azimuth Distance (km) Brightness Sun altitude
Rises 20:29:54 0° 276° (W) 2,334 1.8 -12.6°
Reaches altitude 10° 20:32:07 10° 286° (WNW) 1,473 0.5 -13.0°
Maximum altitude 20:35:08 32° 352° (N) 727 -2.3 -13.5°
Enters shadow 20:37:40 13° 54° (NE) 1,299 -1.6 -13.9°
